| time (UTC) | temp F | wind direction | speed MPH | gust MPH | rain 1hr in | rain 24hr in | rain mn in | humidity % | barometer mb |
| 20260902163610 | 58 | 144 | 0.0 | 2.0 | 0.04 | 0.04 | 0.04 | 87 | 1005.7 |
| 20260902162608 | 59 | 215 | 0.0 | 2.0 | 0.04 | 0.04 | 0.04 | 87 | 1005.8 |
| 20260902161608 | 59 | 118 | 0.0 | 2.0 | 0.03 | 0.03 | 0.03 | 86 | 1006.0 |
| 20260902161107 | 59 | 128 | 0.0 | 4.0 | 0.02 | 0.02 | 0.02 | 86 | 1006.0 |
| 20260902155608 | 59 | 161 | 0.0 | 0.0 | 0.00 | 0.00 | 0.00 | 84 | 1006.0 |
| 20260902154606 | 59 | 145 | 0.0 | 2.0 | 0.00 | 0.00 | 0.00 | 83 | 1006.0 |
| 20260902153607 | 59 | 183 | 0.0 | 1.0 | 0.00 | 0.00 | 0.00 | 83 | 1006.1 |
| 20260902152605 | 59 | 191 | 0.0 | 1.0 | 0.00 | 0.00 | 0.00 | 84 | 1006.2 |
| 20260902152039 | 59 | 178 | 0.0 | 1.0 | 0.00 | 0.00 | 0.00 | 84 | 1006.2 |
| 20260902150605 | 58 | 240 | 0.0 | 2.0 | 0.00 | 0.00 | 0.00 | 85 | 1006.2 |
| 20260902150049 | 58 | 205 | 0.0 | 0.0 | 0.00 | 0.00 | 0.00 | 86 | 1006.1 |
| 20260902144606 | 58 | 205 | 0.0 | 1.0 | 0.00 | 0.00 | 0.00 | 86 | 1006.3 |
| 20260902143604 | 58 | 144 | 0.0 | 1.0 | 0.00 | 0.00 | 0.00 | 86 | 1006.4 |
| 20260902142605 | 58 | 270 | 0.0 | 2.0 | 0.00 | 0.00 | 0.00 | 87 | 1006.5 |
| 20260902141604 | 58 | 217 | 0.0 | 0.0 | 0.00 | 0.00 | 0.00 | 88 | 1006.7 |
| 20260902140602 | 57 | 217 | 0.0 | 0.0 | 0.00 | 0.00 | 0.00 | 88 | 1006.7 |
| 20260902140038 | 57 | 216 | 0.0 | 1.0 | 0.00 | 0.00 | 0.00 | 88 | 1007.0 |
| 20260902134603 | 57 | 173 | 0.0 | 0.0 | 0.00 | 0.00 | 0.00 | 88 | 1007.1 |
| 20260902133611 | 57 | 173 | 0.0 | 2.0 | 0.00 | 0.00 | 0.00 | 88 | 1007.3 |
| 20260902132603 | 57 | 221 | 0.0 | 0.0 | 0.00 | 0.00 | 0.00 | 89 | 1007.3 |
| 20260902131601 | 57 | 323 | 0.0 | 3.0 | 0.00 | 0.00 | 0.00 | 89 | 1007.4 |
| 20260902130601 | 57 | 103 | 0.0 | 0.0 | 0.00 | 0.00 | 0.00 | 88 | 1007.5 |
| 20260902125601 | 57 | 103 | 0.0 | 2.0 | 0.00 | 0.00 | 0.00 | 89 | 1007.7 |
| 20260902124601 | 57 | 267 | 0.0 | 0.0 | 0.00 | 0.00 | 0.00 | 89 | 1007.7 |
| 20260902124532 | 57 | 267 | 0.0 | 0.0 | 0.00 | 0.00 | 0.00 | 88 | 1007.8 |
| 20260902122606 | 57 | 268 | 0.0 | 0.0 | 0.00 | 0.00 | 0.00 | 88 | 1007.9 |
| 20260902121601 | 57 | 171 | 0.0 | 0.0 | 0.00 | 0.00 | 0.00 | 87 | 1008.0 |
| 20260902120601 | 58 | 171 | 0.0 | 1.0 | 0.00 | 0.00 | 0.00 | 87 | 1008.1 |
| 20260902115601 | 58 | 229 | 0.0 | 1.0 | 0.00 | 0.00 | 0.00 | 87 | 1008.2 |
| 20260902114601 | 58 | 229 | 0.0 | 1.0 | 0.00 | 0.00 | 0.00 | 87 | 1008.2 |
| 20260902113602 | 58 | 218 | 0.0 | 1.0 | 0.00 | 0.00 | 0.00 | 87 | 1008.3 |
| 20260902112607 | 58 | 168 | 0.0 | 2.0 | 0.00 | 0.00 | 0.00 | 87 | 1008.4 |
| 20260902111601 | 58 | 122 | 0.0 | 1.0 | 0.00 | 0.00 | 0.00 | 88 | 1008.6 |
| 20260902110603 | 57 | 157 | 0.0 | 0.0 | 0.00 | 0.00 | 0.00 | 88 | 1008.9 |
| 20260902105556 | 57 | 153 | 0.0 | 0.0 | 0.00 | 0.00 | 0.00 | 88 | 1009.0 |
| 20260902105033 | 57 | 241 | 0.0 | 0.0 | 0.00 | 0.00 | 0.00 | 87 | 1009.1 |
| 20260902103556 | 57 | 241 | 0.0 | 1.0 | 0.00 | 0.00 | 0.00 | 87 | 1009.2 |
| 20260902103046 | 58 | 172 | 0.0 | 1.0 | 0.00 | 0.00 | 0.00 | 87 | 1009.3 |
| 20260902101555 | 58 | 165 | 0.0 | 2.0 | 0.00 | 0.00 | 0.00 | 87 | 1009.3 |
| 20260902101035 | 58 | 146 | 0.0 | 3.0 | 0.00 | 0.00 | 0.00 | 87 | 1009.4 |
| 20260902100042 | 58 | 243 | 0.0 | 0.0 | 0.00 | 0.00 | 0.00 | 86 | 1009.3 |
| 20260902094557 | 58 | 243 | 0.0 | 0.0 | 0.00 | 0.00 | 0.00 | 86 | 1009.5 |
| 20260902093556 | 58 | 210 | 0.0 | 0.0 | 0.00 | 0.00 | 0.00 | 86 | 1009.7 |
| 20260902092555 | 58 | 210 | 0.0 | 0.0 | 0.00 | 0.00 | 0.00 | 86 | 1009.8 |
| 20260902091559 | 58 | 210 | 0.0 | 0.0 | 0.00 | 0.00 | 0.00 | 86 | 1009.9 |
| 20260902090554 | 58 | 226 | 0.0 | 0.0 | 0.00 | 0.00 | 0.00 | 86 | 1009.9 |
| 20260902085558 | 58 | 151 | 0.0 | 1.0 | 0.00 | 0.00 | 0.00 | 86 | 1010.0 |
| 20260902084554 | 58 | 150 | 0.0 | 2.0 | 0.00 | 0.00 | 0.00 | 86 | 1010.1 |
| 20260902084045 | 58 | 231 | 0.0 | 2.0 | 0.00 | 0.00 | 0.00 | 87 | 1010.2 |
| 20260902082554 | 58 | 142 | 0.0 | 1.0 | 0.00 | 0.00 | 0.00 | 87 | 1010.3 |
| 20260902081554 | 58 | 157 | 0.0 | 3.0 | 0.00 | 0.00 | 0.00 | 87 | 1010.3 |
| 20260902080551 | 57 | 189 | 0.0 | 1.0 | 0.00 | 0.00 | 0.00 | 87 | 1010.2 |
| 20260902075611 | 57 | 293 | 0.0 | 0.0 | 0.00 | 0.00 | 0.00 | 86 | 1010.2 |
| 20260902074552 | 58 | 293 | 0.0 | 0.0 | 0.00 | 0.00 | 0.00 | 85 | 1010.2 |
| 20260902073551 | 58 | 293 | 0.0 | 0.0 | 0.00 | 0.00 | 0.00 | 84 | 1010.3 |
| 20260902072552 | 59 | 293 | 0.0 | 0.0 | 0.00 | 0.00 | 0.00 | 83 | 1010.5 |
| 20260902071552 | 59 | 292 | 0.0 | 0.0 | 0.00 | 0.00 | 0.00 | 82 | 1010.3 |
| 20260902071115 | 60 | 293 | 0.0 | 0.0 | 0.00 | 0.00 | 0.00 | 80 | 1010.4 |
| 20260902065549 | 60 | 293 | 0.0 | 0.0 | 0.00 | 0.00 | 0.00 | 80 | 1010.4 |
| 20260902064552 | 61 | 293 | 0.0 | 0.0 | 0.00 | 0.00 | 0.00 | 80 | 1010.4 |
| 20260902063552 | 61 | 293 | 0.0 | 0.0 | 0.00 | 0.00 | 0.00 | 80 | 1010.4 |
| 20260902062549 | 61 | 293 | 0.0 | 0.0 | 0.00 | 0.00 | 0.00 | 80 | 1010.7 |
| 20260902061549 | 61 | 293 | 0.0 | 1.0 | 0.00 | 0.00 | 0.00 | 80 | 1011.0 |
| 20260902060549 | 61 | 292 | 0.0 | 1.0 | 0.00 | 0.00 | 0.00 | 79 | 1011.0 |
| 20260902055551 | 62 | 273 | 0.0 | 2.0 | 0.00 | 0.00 | 0.00 | 79 | 1011.1 |
| 20260902054549 | 62 | 302 | 0.0 | 2.0 | 0.00 | 0.00 | 0.00 | 78 | 1011.2 |
| 20260902053553 | 62 | 300 | 0.0 | 1.0 | 0.00 | 0.00 | 0.00 | 79 | 1011.3 |
| 20260902052551 | 62 | 300 | 0.0 | 1.0 | 0.00 | 0.00 | 0.00 | 78 | 1011.3 |
| 20260902051553 | 62 | 321 | 0.0 | 0.0 | 0.00 | 0.00 | 0.00 | 78 | 1011.3 |
| 20260902051033 | 62 | 321 | 0.0 | 1.0 | 0.00 | 0.00 | 0.00 | 78 | 1011.4 |
| 20260902045553 | 62 | 303 | 0.0 | 0.0 | 0.00 | 0.00 | 0.00 | 77 | 1011.4 |
| 20260902044550 | 62 | 303 | 0.0 | 1.0 | 0.00 | 0.00 | 0.00 | 77 | 1011.4 |
| 20260902044035 | 62 | 327 | 0.0 | 1.0 | 0.00 | 0.00 | 0.00 | 77 | 1011.5 |
| 20260902042549 | 62 | 333 | 0.0 | 0.0 | 0.00 | 0.00 | 0.00 | 77 | 1011.4 |
| 20260902041545 | 63 | 333 | 0.0 | 0.0 | 0.00 | 0.00 | 0.00 | 76 | 1011.2 |
| 20260902040547 | 63 | 333 | 0.0 | 0.0 | 0.00 | 0.00 | 0.00 | 76 | 1011.1 |
| 20260902035549 | 63 | 327 | 0.0 | 1.0 | 0.00 | 0.00 | 0.00 | 75 | 1010.9 |
| 20260902034547 | 63 | 339 | 0.0 | 3.0 | 0.00 | 0.00 | 0.00 | 75 | 1010.8 |
| 20260902033546 | 63 | 343 | 1.0 | 3.0 | 0.00 | 0.00 | 0.00 | 74 | 1010.8 |
| 20260902032546 | 64 | 315 | 0.0 | 3.0 | 0.00 | 0.00 | 0.00 | 74 | 1010.9 |
| 20260902032026 | 64 | 319 | 1.0 | 2.0 | 0.00 | 0.00 | 0.00 | 73 | 1010.8 |
| 20260902030546 | 64 | 309 | 1.0 | 5.0 | 0.00 | 0.00 | 0.00 | 73 | 1010.7 |
| 20260902025546 | 64 | 332 | 1.0 | 3.0 | 0.00 | 0.00 | 0.00 | 72 | 1010.7 |
| 20260902024548 | 64 | 300 | 1.0 | 4.0 | 0.00 | 0.00 | 0.00 | 72 | 1010.8 |
| 20260902023549 | 65 | 316 | 0.0 | 3.0 | 0.00 | 0.00 | 0.00 | 72 | 1010.8 |
| 20260902022546 | 65 | 312 | 1.0 | 6.0 | 0.00 | 0.00 | 0.00 | 71 | 1010.9 |
| 20260902021546 | 65 | 278 | 2.0 | 5.0 | 0.00 | 0.00 | 0.00 | 71 | 1010.7 |
| 20260902020545 | 65 | 312 | 1.0 | 8.0 | 0.00 | 0.00 | 0.00 | 70 | 1010.7 |
| 20260902020033 | 65 | 286 | 1.0 | 5.0 | 0.00 | 0.00 | 0.00 | 70 | 1010.6 |
| 20260902015033 | 65 | 355 | 2.0 | 7.0 | 0.00 | 0.00 | 0.00 | 70 | 1010.6 |
| 20260902013545 | 66 | 321 | 2.0 | 5.0 | 0.00 | 0.00 | 0.00 | 69 | 1010.5 |
| 20260902012548 | 66 | 330 | 1.0 | 4.0 | 0.00 | 0.00 | 0.00 | 68 | 1010.5 |
| 20260902011541 | 66 | 327 | 1.0 | 5.0 | 0.00 | 0.00 | 0.00 | 68 | 1010.5 |
| 20260902010541 | 66 | 254 | 1.0 | 3.0 | 0.00 | 0.00 | 0.00 | 68 | 1010.5 |
| 20260902005542 | 66 | 293 | 1.0 | 5.0 | 0.00 | 0.00 | 0.00 | 68 | 1010.5 |
| 20260902004543 | 66 | 304 | 2.0 | 8.0 | 0.00 | 0.00 | 0.00 | 68 | 1010.4 |
| 20260902003541 | 67 | 294 | 2.0 | 6.0 | 0.00 | 0.00 | 0.00 | 67 | 1010.3 |
| 20260902002542 | 67 | 298 | 1.0 | 5.0 | 0.00 | 0.00 | 0.00 | 66 | 1010.4 |
| 20260902001543 | 67 | 304 | 1.0 | 5.0 | 0.00 | 0.00 | 0.00 | 66 | 1010.3 |
| 20260902000541 | 67 | 347 | 1.0 | 4.0 | 0.00 | 0.00 | 0.00 | 66 | 1010.3 |
| 20260902000516 | 67 | 303 | 2.0 | 6.0 | 0.00 | 0.00 | 0.00 | 67 | 1010.2 |
| 20260901234541 | 67 | 294 | 2.0 | 9.0 | 0.00 | 0.00 | 0.00 | 66 | 1010.2 |
| 20260901233541 | 67 | 303 | 3.0 | 11.0 | 0.00 | 0.00 | 0.00 | 65 | 1010.3 |
| 20260901232541 | 69 | 343 | 2.0 | 8.0 | 0.00 | 0.00 | 0.00 | 63 | 1010.3 |
| 20260901231543 | 69 | 323 | 1.0 | 7.0 | 0.00 | 0.00 | 0.00 | 62 | 1010.2 |
| 20260901230539 | 69 | 349 | 1.0 | 4.0 | 0.00 | 0.00 | 0.00 | 61 | 1010.2 |
| 20260901230015 | 69 | 222 | 0.0 | 3.0 | 0.00 | 0.00 | 0.00 | 61 | 1010.3 |
| 20260901224541 | 68 | 190 | 1.0 | 6.0 | 0.00 | 0.00 | 0.00 | 63 | 1010.3 |
| 20260901223540 | 68 | 245 | 0.0 | 3.0 | 0.00 | 0.00 | 0.00 | 62 | 1010.5 |
| 20260901223021 | 68 | 282 | 0.0 | 3.0 | 0.00 | 0.00 | 0.00 | 63 | 1010.6 |
| 20260901221539 | 68 | 262 | 1.0 | 2.0 | 0.00 | 0.00 | 0.00 | 62 | 1010.6 |
| 20260901221016 | 68 | 202 | 1.0 | 5.0 | 0.00 | 0.00 | 0.00 | 62 | 1010.5 |
| 20260901220448 | 68 | 292 | 0.0 | 2.0 | 0.00 | 0.00 | 0.00 | 62 | 1010.5 |
| 20260901214537 | 68 | 147 | 1.0 | 3.0 | 0.00 | 0.00 | 0.00 | 62 | 1010.5 |
| 20260901213536 | 68 | 211 | 0.0 | 2.0 | 0.00 | 0.00 | 0.00 | 61 | 1010.3 |
| 20260901212536 | 68 | 271 | 1.0 | 3.0 | 0.00 | 0.00 | 0.00 | 61 | 1010.5 |
| 20260901212030 | 68 | 152 | 0.0 | 3.0 | 0.00 | 0.00 | 0.00 | 62 | 1010.6 |
| 20260901210536 | 68 | 296 | 0.0 | 3.0 | 0.00 | 0.00 | 0.00 | 61 | 1010.6 |
| 20260901205535 | 68 | 294 | 0.0 | 2.0 | 0.00 | 0.00 | 0.00 | 61 | 1010.6 |
| 20260901204535 | 68 | 219 | 1.0 | 4.0 | 0.00 | 0.00 | 0.00 | 60 | 1010.6 |
| 20260901203536 | 68 | 218 | 1.0 | 5.0 | 0.00 | 0.00 | 0.00 | 60 | 1010.5 |
| 20260901202536 | 68 | 256 | 2.0 | 5.0 | 0.00 | 0.00 | 0.00 | 60 | 1010.6 |
| 20260901201537 | 69 | 215 | 2.0 | 9.0 | 0.00 | 0.00 | 0.00 | 59 | 1010.7 |
| 20260901200536 | 69 | 198 | 2.0 | 8.0 | 0.00 | 0.00 | 0.00 | 59 | 1010.7 |
| 20260901200024 | 68 | 163 | 2.0 | 5.0 | 0.00 | 0.00 | 0.00 | 62 | 1010.8 |
| 20260901194535 | 68 | 225 | 1.0 | 8.0 | 0.00 | 0.00 | 0.00 | 62 | 1010.9 |
| 20260901193536 | 67 | 242 | 1.0 | 6.0 | 0.00 | 0.00 | 0.00 | 64 | 1010.9 |
| 20260901192536 | 66 | 255 | 2.0 | 6.0 | 0.00 | 0.00 | 0.00 | 65 | 1011.0 |
| 20260901191537 | 66 | 231 | 2.0 | 7.0 | 0.00 | 0.00 | 0.00 | 65 | 1011.0 |
| 20260901190539 | 66 | 202 | 1.0 | 4.0 | 0.00 | 0.00 | 0.00 | 67 | 1011.2 |
| 20260901185538 | 65 | 299 | 1.0 | 5.0 | 0.00 | 0.00 | 0.00 | 69 | 1011.3 |
| 20260901184536 | 65 | 231 | 1.0 | 4.0 | 0.00 | 0.00 | 0.00 | 70 | 1011.4 |
| 20260901183535 | 64 | 156 | 0.0 | 3.0 | 0.00 | 0.00 | 0.00 | 72 | 1011.4 |
| 20260901182533 | 64 | 149 | 1.0 | 4.0 | 0.00 | 0.00 | 0.00 | 73 | 1011.3 |
| 20260901181534 | 64 | 233 | 1.0 | 5.0 | 0.00 | 0.00 | 0.00 | 73 | 1011.4 |
| 20260901180534 | 64 | 194 | 0.0 | 3.0 | 0.00 | 0.00 | 0.00 | 74 | 1011.3 |
| 20260901175534 | 63 | 138 | 1.0 | 3.0 | 0.00 | 0.00 | 0.00 | 74 | 1011.3 |
| 20260901174533 | 63 | 202 | 1.0 | 4.0 | 0.00 | 0.00 | 0.00 | 75 | 1011.3 |
| 20260901173533 | 63 | 163 | 1.0 | 3.0 | 0.00 | 0.00 | 0.00 | 75 | 1011.3 |
| 20260901173019 | 63 | 234 | 1.0 | 4.0 | 0.00 | 0.00 | 0.00 | 76 | 1011.3 |
| 20260901172011 | 63 | 143 | 0.0 | 2.0 | 0.00 | 0.00 | 0.00 | 76 | 1011.3 |
| 20260901170532 | 63 | 291 | 0.0 | 3.0 | 0.00 | 0.00 | 0.00 | 76 | 1011.3 |
| 20260901165531 | 62 | 277 | 0.0 | 2.0 | 0.00 | 0.00 | 0.00 | 79 | 1011.2 |
| 20260901164532 | 61 | 291 | 0.0 | 1.0 | 0.00 | 0.00 | 0.00 | 81 | 1011.2 |